Time,TemperatureF,DewpointF,PressureIn,WindDirection,WindDirectionDegrees,WindSpeedMPH,WindSpeedGustMPH,Humidity,HourlyPrecipIn,Conditions,Clouds,dailyrainin,SoftwareType,DateUTC
2013-03-21 00:00:00,32.5,31.0,29.80,SSW,202,1.2,1.9,89,0.00,,,0.00,Rainwise IP-100,2013-03-21 04:00:00,
2013-03-21 00:01:00,32.4,29.0,29.80,SSW,202,1.2,2.1,89,0.00,,,0.00,Rainwise IP-100,2013-03-21 04:01:00,
2013-03-21 00:06:00,32.1,29.0,29.80,SSW,202,1.9,1.9,89,0.00,,,0.00,Rainwise IP-100,2013-03-21 04:06:00,
2013-03-21 00:11:00,32.0,29.0,29.80,SSW,202,0.0,2.8,90,0.00,,,0.00,Rainwise IP-100,2013-03-21 04:11:00,
2013-03-21 00:16:00,32.0,29.0,29.80,SSW,202,1.2,2.1,91,0.00,,,0.00,Rainwise IP-100,2013-03-21 04:16:00,
2013-03-21 00:21:00,32.1,29.0,29.80,WSW,247,0.0,1.9,91,0.00,,,0.00,Rainwise IP-100,2013-03-21 04:21:00,
2013-03-21 00:26:00,32.3,29.0,29.81,WSW,247,0.0,2.3,91,0.00,,,0.00,Rainwise IP-100,2013-03-21 04:26:00,
2013-03-21 00:31:00,32.2,29.0,29.81,WSW,247,0.0,0.0,91,0.00,,,0.00,Rainwise IP-100,2013-03-21 04:31:00,
2013-03-21 00:36:00,32.0,29.0,29.81,WSW,247,0.0,0.0,91,0.00,,,0.00,Rainwise IP-100,2013-03-21 04:36:00,
2013-03-21 00:41:00,32.0,31.0,29.80,SSW,202,2.1,2.1,92,0.00,,,0.00,Rainwise IP-100,2013-03-21 04:41:00,
2013-03-21 00:46:00,32.0,31.0,29.81,SSW,202,1.2,2.3,92,0.00,,,0.00,Rainwise IP-100,2013-03-21 04:46:00,
2013-03-21 00:51:00,31.8,31.0,29.81,SW,225,1.6,2.6,92,0.00,,,0.00,Rainwise IP-100,2013-03-21 04:51:00,
2013-03-21 00:56:00,31.8,31.0,29.81,SW,225,0.0,3.0,93,0.00,,,0.00,Rainwise IP-100,2013-03-21 04:56:00,
2013-03-21 01:01:00,32.1,31.0,29.82,SW,225,1.2,3.0,93,0.00,,,0.00,Rainwise IP-100,2013-03-21 05:01:00,
2013-03-21 01:06:00,32.5,32.0,29.81,SW,225,0.0,2.8,94,0.00,,,0.00,Rainwise IP-100,2013-03-21 05:06:00,
2013-03-21 01:11:00,33.2,32.0,29.81,WSW,247,1.6,4.0,94,0.00,,,0.00,Rainwise IP-100,2013-03-21 05:11:00,
2013-03-21 01:16:00,33.7,33.0,29.81,WSW,247,0.0,1.9,93,0.00,,,0.00,Rainwise IP-100,2013-03-21 05:16:00,
2013-03-21 01:21:00,34.0,33.0,29.82,WSW,247,2.3,0.0,93,0.00,,,0.00,Rainwise IP-100,2013-03-21 05:21:00,
2013-03-21 01:26:00,34.0,33.0,29.81,SW,225,2.1,2.8,93,0.00,,,0.00,Rainwise IP-100,2013-03-21 05:26:00,
2013-03-21 01:31:00,34.1,33.0,29.81,SSW,202,1.6,3.0,93,0.00,,,0.00,Rainwise IP-100,2013-03-21 05:31:00,
2013-03-21 01:36:00,34.3,33.0,29.81,NW,315,2.1,4.4,93,0.00,,,0.00,Rainwise IP-100,2013-03-21 05:36:00,
2013-03-21 01:41:00,34.5,32.0,29.82,WSW,247,1.2,4.0,92,0.00,,,0.00,Rainwise IP-100,2013-03-21 05:41:00,
2013-03-21 01:46:00,34.7,32.0,29.81,SW,225,3.0,6.3,92,0.00,,,0.00,Rainwise IP-100,2013-03-21 05:46:00,
2013-03-21 01:51:00,35.0,32.0,29.81,WSW,247,3.7,4.9,92,0.00,,,0.00,Rainwise IP-100,2013-03-21 05:51:00,
2013-03-21 01:56:00,35.4,32.0,29.81,WNW,292,0.0,5.4,91,0.00,,,0.00,Rainwise IP-100,2013-03-21 05:56:00,
2013-03-21 02:01:00,35.6,33.0,29.81,WNW,292,1.2,3.3,90,0.00,,,0.00,Rainwise IP-100,2013-03-21 06:01:00,
2013-03-21 02:06:00,35.6,33.0,29.81,WNW,292,0.0,1.6,90,0.00,,,0.00,Rainwise IP-100,2013-03-21 06:06:00,
2013-03-21 02:11:00,35.4,32.0,29.81,WNW,292,0.0,2.1,90,0.00,,,0.00,Rainwise IP-100,2013-03-21 06:11:00,
2013-03-21 02:16:00,35.3,32.0,29.81,WNW,292,3.7,3.7,89,0.00,,,0.00,Rainwise IP-100,2013-03-21 06:16:00,
2013-03-21 02:21:00,35.5,32.0,29.81,WNW,292,2.3,6.3,87,0.00,,,0.00,Rainwise IP-100,2013-03-21 06:21:00,
2013-03-21 02:26:00,35.9,32.0,29.80,West,270,0.0,7.2,85,0.00,,,0.00,Rainwise IP-100,2013-03-21 06:26:00,
2013-03-21 02:31:00,36.0,32.0,29.80,WSW,247,2.1,2.8,84,0.00,,,0.00,Rainwise IP-100,2013-03-21 06:31:00,
2013-03-21 02:36:00,35.7,32.0,29.80,WNW,292,0.0,3.3,84,0.00,,,0.00,Rainwise IP-100,2013-03-21 06:36:00,
2013-03-21 02:41:00,35.3,31.0,29.80,WNW,292,0.0,1.4,84,0.00,,,0.00,Rainwise IP-100,2013-03-21 06:41:00,
2013-03-21 02:47:00,34.8,31.0,29.80,WNW,292,0.0,1.4,84,0.00,,,0.00,Rainwise IP-100,2013-03-21 06:47:00,
2013-03-21 02:52:00,34.1,31.0,29.80,WNW,292,0.0,2.1,85,0.00,,,0.00,Rainwise IP-100,2013-03-21 06:52:00,
2013-03-21 02:57:00,33.7,31.0,29.79,WNW,292,0.0,0.0,86,0.00,,,0.00,Rainwise IP-100,2013-03-21 06:57:00,
2013-03-21 03:02:00,33.3,29.0,29.79,WNW,292,0.0,1.4,86,0.00,,,0.00,Rainwise IP-100,2013-03-21 07:02:00,
2013-03-21 03:07:00,32.8,31.0,29.79,WNW,292,0.0,0.0,87,0.00,,,0.00,Rainwise IP-100,2013-03-21 07:07:00,
2013-03-21 03:12:00,32.2,29.0,29.79,WNW,292,0.0,0.0,87,0.00,,,0.00,Rainwise IP-100,2013-03-21 07:12:00,
2013-03-21 03:17:00,31.8,29.0,29.79,WNW,292,0.0,0.0,88,0.00,,,0.00,Rainwise IP-100,2013-03-21 07:17:00,
2013-03-21 03:22:00,31.4,28.0,29.79,WNW,292,0.0,0.0,89,0.00,,,0.00,Rainwise IP-100,2013-03-21 07:22:00,
2013-03-21 03:27:00,31.2,28.0,29.78,WNW,292,0.0,0.0,89,0.00,,,0.00,Rainwise IP-100,2013-03-21 07:27:00,
2013-03-21 03:32:00,31.0,28.0,29.78,WNW,292,0.0,0.0,90,0.00,,,0.00,Rainwise IP-100,2013-03-21 07:32:00,
2013-03-21 03:37:00,30.5,28.0,29.78,WNW,292,0.0,0.0,91,0.00,,,0.00,Rainwise IP-100,2013-03-21 07:37:00,
2013-03-21 03:42:00,29.9,28.0,29.78,WNW,292,0.0,0.0,91,0.00,,,0.00,Rainwise IP-100,2013-03-21 07:42:00,
2013-03-21 03:47:00,29.6,28.0,29.77,WNW,292,0.0,0.0,91,0.00,,,0.00,Rainwise IP-100,2013-03-21 07:47:00,
2013-03-21 03:52:00,29.4,28.0,29.77,WNW,292,0.0,0.0,92,0.00,,,0.00,Rainwise IP-100,2013-03-21 07:52:00,
2013-03-21 03:57:00,29.1,28.0,29.77,WNW,292,0.0,0.0,93,0.00,,,0.00,Rainwise IP-100,2013-03-21 07:57:00,
2013-03-21 04:02:00,28.7,28.0,29.77,WNW,292,0.0,0.0,93,0.00,,,0.00,Rainwise IP-100,2013-03-21 08:02:00,
2013-03-21 04:07:00,28.4,26.0,29.77,WNW,292,0.0,0.0,93,0.00,,,0.00,Rainwise IP-100,2013-03-21 08:07:00,
2013-03-21 04:12:00,28.1,26.0,29.77,WNW,292,0.0,0.0,93,0.00,,,0.00,Rainwise IP-100,2013-03-21 08:12:00,
2013-03-21 04:17:00,27.9,26.0,29.77,WNW,292,0.0,0.0,94,0.00,,,0.00,Rainwise IP-100,2013-03-21 08:17:00,
2013-03-21 04:22:00,27.9,26.0,29.77,WNW,292,0.0,0.0,94,0.00,,,0.00,Rainwise IP-100,2013-03-21 08:22:00,
2013-03-21 04:27:00,28.0,26.0,29.77,WNW,292,0.0,0.0,94,0.00,,,0.00,Rainwise IP-100,2013-03-21 08:27:00,
2013-03-21 04:32:00,28.2,26.0,29.77,WNW,292,0.0,0.0,94,0.00,,,0.00,Rainwise IP-100,2013-03-21 08:32:00,
2013-03-21 04:37:00,28.3,26.0,29.77,WNW,292,0.0,0.0,95,0.00,,,0.00,Rainwise IP-100,2013-03-21 08:37:00,
2013-03-21 04:42:00,28.4,26.0,29.77,WNW,292,0.0,0.0,95,0.00,,,0.00,Rainwise IP-100,2013-03-21 08:42:00,
2013-03-21 04:47:00,28.4,26.0,29.77,WNW,292,0.0,0.0,95,0.00,,,0.00,Rainwise IP-100,2013-03-21 08:47:00,
2013-03-21 04:52:00,28.3,26.0,29.76,WNW,292,0.0,0.0,95,0.00,,,0.00,Rainwise IP-100,2013-03-21 08:52:00,
2013-03-21 04:57:00,28.2,26.0,29.76,WNW,292,0.0,0.0,95,0.00,,,0.00,Rainwise IP-100,2013-03-21 08:57:00,
2013-03-21 05:02:00,28.2,26.0,29.77,WNW,292,0.0,0.0,95,0.00,,,0.00,Rainwise IP-100,2013-03-21 09:02:00,
2013-03-21 05:07:00,28.2,26.0,29.77,WNW,292,0.0,0.0,95,0.00,,,0.00,Rainwise IP-100,2013-03-21 09:07:00,
2013-03-21 05:12:00,28.2,26.0,29.77,WNW,292,0.0,0.0,95,0.00,,,0.00,Rainwise IP-100,2013-03-21 09:12:00,
2013-03-21 05:17:00,28.3,26.0,29.76,WNW,292,0.0,0.0,95,0.00,,,0.00,Rainwise IP-100,2013-03-21 09:17:00,
2013-03-21 05:22:00,28.4,26.0,29.76,WNW,292,0.0,0.0,95,0.00,,,0.00,Rainwise IP-100,2013-03-21 09:22:00,
2013-03-21 05:27:00,28.7,28.0,29.75,WNW,292,0.0,0.0,95,0.00,,,0.00,Rainwise IP-100,2013-03-21 09:27:00,
2013-03-21 05:32:00,28.8,28.0,29.76,WNW,292,0.0,0.0,94,0.00,,,0.00,Rainwise IP-100,2013-03-21 09:32:00,
2013-03-21 05:37:00,29.0,28.0,29.76,WNW,292,1.4,1.4,94,0.00,,,0.00,Rainwise IP-100,2013-03-21 09:37:00,
2013-03-21 05:42:00,29.8,29.0,29.76,WNW,292,0.0,2.3,92,0.00,,,0.00,Rainwise IP-100,2013-03-21 09:42:00,
2013-03-21 05:47:00,30.8,28.0,29.77,WNW,292,0.0,1.9,90,0.00,,,0.00,Rainwise IP-100,2013-03-21 09:47:00,
2013-03-21 05:52:00,31.1,28.0,29.77,WNW,292,0.0,0.0,89,0.00,,,0.00,Rainwise IP-100,2013-03-21 09:52:00,
2013-03-21 05:57:00,30.8,28.0,29.77,WNW,292,0.0,1.2,89,0.00,,,0.00,Rainwise IP-100,2013-03-21 09:57:00,
2013-03-21 06:02:00,30.5,28.0,29.76,NNW,337,2.3,3.0,88,0.00,,,0.00,Rainwise IP-100,2013-03-21 10:02:00,
2013-03-21 06:07:00,30.5,28.0,29.76,NNW,337,1.9,3.7,87,0.00,,,0.00,Rainwise IP-100,2013-03-21 10:07:00,
2013-03-21 06:12:00,30.4,28.0,29.76,NNW,337,0.0,2.6,87,0.00,,,0.00,Rainwise IP-100,2013-03-21 10:12:00,
2013-03-21 06:17:00,30.0,28.0,29.76,NNW,337,2.1,2.1,87,0.00,,,0.00,Rainwise IP-100,2013-03-21 10:17:00,
2013-03-21 06:22:00,29.5,28.0,29.76,NNW,337,2.8,3.7,88,0.00,,,0.00,Rainwise IP-100,2013-03-21 10:22:00,
2013-03-21 06:27:00,29.3,26.0,29.76,NNW,337,0.0,3.7,87,0.00,,,0.00,Rainwise IP-100,2013-03-21 10:27:00,
2013-03-21 06:32:00,29.3,26.0,29.76,NNW,337,0.0,1.4,87,0.00,,,0.00,Rainwise IP-100,2013-03-21 10:32:00,
2013-03-21 06:37:00,29.0,26.0,29.76,NNW,337,3.3,3.3,87,0.00,,,0.00,Rainwise IP-100,2013-03-21 10:37:00,
2013-03-21 06:42:00,28.9,26.0,29.76,North,360,2.1,4.7,87,0.00,,,0.00,Rainwise IP-100,2013-03-21 10:42:00,
2013-03-21 06:47:00,29.2,26.0,29.76,NNE,22,2.8,3.7,85,0.00,,,0.00,Rainwise IP-100,2013-03-21 10:47:00,
2013-03-21 06:52:00,29.2,24.0,29.76,NE,45,0.0,3.5,84,0.00,,,0.00,Rainwise IP-100,2013-03-21 10:52:00,
2013-03-21 06:57:00,29.1,24.0,29.76,NE,45,0.0,1.6,84,0.00,,,0.00,Rainwise IP-100,2013-03-21 10:57:00,
2013-03-21 07:02:00,28.9,24.0,29.76,NW,315,4.7,4.9,84,0.00,,,0.00,Rainwise IP-100,2013-03-21 11:02:00,
2013-03-21 07:07:00,29.2,24.0,29.76,North,360,4.4,6.1,83,0.00,,,0.00,Rainwise IP-100,2013-03-21 11:07:00,
2013-03-21 07:12:00,29.8,26.0,29.76,North,360,5.8,7.2,80,0.00,,,0.00,Rainwise IP-100,2013-03-21 11:12:00,
2013-03-21 07:17:00,30.2,24.0,29.76,North,360,1.4,7.5,79,0.00,,,0.00,Rainwise IP-100,2013-03-21 11:17:00,
2013-03-21 07:22:00,30.2,24.0,29.75,North,360,0.0,3.5,79,0.00,,,0.00,Rainwise IP-100,2013-03-21 11:22:00,
2013-03-21 07:27:00,30.2,24.0,29.75,NNW,337,5.6,5.6,79,0.00,,,0.00,Rainwise IP-100,2013-03-21 11:27:00,
2013-03-21 07:32:00,30.4,24.0,29.75,NNE,22,0.0,6.5,78,0.00,,,0.00,Rainwise IP-100,2013-03-21 11:32:00,
2013-03-21 07:37:00,30.7,24.0,29.75,NNE,22,3.3,6.5,77,0.00,,,0.00,Rainwise IP-100,2013-03-21 11:37:00,
2013-03-21 07:42:00,30.9,24.0,29.75,North,360,2.1,4.7,76,0.00,,,0.00,Rainwise IP-100,2013-03-21 11:42:00,
2013-03-21 07:47:00,30.8,24.0,29.75,NNW,337,2.1,4.7,76,0.00,,,0.00,Rainwise IP-100,2013-03-21 11:47:00,
2013-03-21 07:52:00,30.7,24.0,29.76,NNW,337,0.0,4.0,75,0.00,,,0.00,Rainwise IP-100,2013-03-21 11:52:00,
2013-03-21 07:57:00,31.0,24.0,29.76,NNW,337,1.9,3.7,75,0.00,,,0.00,Rainwise IP-100,2013-03-21 11:57:00,
2013-03-21 08:02:00,31.2,24.0,29.76,NNW,337,2.3,6.8,74,0.00,,,0.00,Rainwise IP-100,2013-03-21 12:02:00,
2013-03-21 08:07:00,31.3,24.0,29.76,ENE,67,0.0,4.7,74,0.00,,,0.00,Rainwise IP-100,2013-03-21 12:07:00,
2013-03-21 08:12:00,31.4,24.0,29.76,NNE,22,0.0,4.2,74,0.00,,,0.00,Rainwise IP-100,2013-03-21 12:12:00,
2013-03-21 08:17:00,32.1,24.0,29.76,NNE,22,2.1,4.2,74,0.00,,,0.00,Rainwise IP-100,2013-03-21 12:17:00,
2013-03-21 08:22:00,33.1,26.0,29.76,North,360,1.2,4.4,73,0.00,,,0.00,Rainwise IP-100,2013-03-21 12:22:00,
2013-03-21 08:27:00,33.9,26.0,29.76,North,360,2.8,5.1,72,0.00,,,0.00,Rainwise IP-100,2013-03-21 12:27:00,
2013-03-21 08:32:00,34.5,26.0,29.76,North,360,4.4,7.7,70,0.00,,,0.00,Rainwise IP-100,2013-03-21 12:32:00,
2013-03-21 08:37:00,34.7,26.0,29.76,ENE,67,3.3,8.6,68,0.00,,,0.00,Rainwise IP-100,2013-03-21 12:37:00,
2013-03-21 08:42:00,34.6,24.0,29.76,NE,45,3.7,4.9,67,0.00,,,0.00,Rainwise IP-100,2013-03-21 12:42:00,
2013-03-21 08:47:00,34.9,24.0,29.76,ENE,67,1.2,8.2,66,0.00,,,0.00,Rainwise IP-100,2013-03-21 12:47:00,
2013-03-21 08:52:00,35.5,26.0,29.76,North,360,7.2,7.9,65,0.00,,,0.00,Rainwise IP-100,2013-03-21 12:52:00,
2013-03-21 08:57:00,35.9,24.0,29.76,North,360,0.0,8.6,64,0.00,,,0.00,Rainwise IP-100,2013-03-21 12:57:00,
2013-03-21 09:02:00,35.8,24.0,29.76,NNW,337,4.2,10.5,62,0.00,,,0.00,Rainwise IP-100,2013-03-21 13:02:00,
2013-03-21 09:07:00,35.5,24.0,29.76,NNE,22,2.8,6.3,62,0.00,,,0.00,Rainwise IP-100,2013-03-21 13:07:00,
2013-03-21 09:12:00,35.5,24.0,29.76,NNE,22,1.4,6.1,62,0.00,,,0.00,Rainwise IP-100,2013-03-21 13:12:00,
2013-03-21 09:17:00,35.5,24.0,29.75,NNE,22,3.3,4.0,61,0.00,,,0.00,Rainwise IP-100,2013-03-21 13:17:00,
2013-03-21 09:22:00,36.1,24.0,29.75,NE,45,4.4,7.0,61,0.00,,,0.00,Rainwise IP-100,2013-03-21 13:22:00,
2013-03-21 09:27:00,36.6,24.0,29.75,ENE,67,1.2,10.5,60,0.00,,,0.00,Rainwise IP-100,2013-03-21 13:27:00,
2013-03-21 09:32:00,36.5,24.0,29.75,NNW,337,7.9,12.6,59,0.00,,,0.00,Rainwise IP-100,2013-03-21 13:32:00,
2013-03-21 09:37:00,36.8,24.0,29.74,NNW,337,4.2,8.6,58,0.00,,,0.00,Rainwise IP-100,2013-03-21 13:37:00,
2013-03-21 09:42:00,37.5,24.0,29.75,North,360,4.2,9.6,58,0.00,,,0.00,Rainwise IP-100,2013-03-21 13:42:00,
2013-03-21 09:47:00,37.5,24.0,29.74,ENE,67,2.8,5.4,57,0.00,,,0.00,Rainwise IP-100,2013-03-21 13:47:00,
2013-03-21 09:52:00,37.0,24.0,29.74,NNE,22,5.6,5.6,57,0.00,,,0.00,Rainwise IP-100,2013-03-21 13:52:00,
2013-03-21 09:57:00,36.8,24.0,29.74,NNW,337,0.0,7.5,58,0.00,,,0.00,Rainwise IP-100,2013-03-21 13:57:00,
2013-03-21 10:02:00,36.5,24.0,29.74,ENE,67,4.7,4.7,58,0.00,,,0.00,Rainwise IP-100,2013-03-21 14:02:00,
2013-03-21 10:07:00,36.4,23.0,29.74,ENE,67,0.0,6.3,58,0.00,,,0.00,Rainwise IP-100,2013-03-21 14:07:00,
2013-03-21 10:12:00,36.6,24.0,29.74,North,360,4.4,7.7,58,0.00,,,0.00,Rainwise IP-100,2013-03-21 14:12:00,
2013-03-21 10:17:00,36.9,24.0,29.74,NNE,22,3.5,6.1,58,0.00,,,0.00,Rainwise IP-100,2013-03-21 14:17:00,
2013-03-21 10:22:00,36.9,24.0,29.73,NNE,22,4.4,6.8,57,0.00,,,0.00,Rainwise IP-100,2013-03-21 14:22:00,
2013-03-21 10:27:00,36.9,24.0,29.73,NNE,22,3.0,6.8,57,0.00,,,0.00,Rainwise IP-100,2013-03-21 14:27:00,
2013-03-21 10:32:00,37.4,24.0,29.73,NNE,22,2.3,9.8,57,0.00,,,0.00,Rainwise IP-100,2013-03-21 14:32:00,
2013-03-21 10:37:00,37.6,24.0,29.72,NE,45,3.5,8.2,57,0.00,,,0.00,Rainwise IP-100,2013-03-21 14:37:00,
2013-03-21 10:42:00,37.8,24.0,29.72,ENE,67,3.0,8.4,57,0.00,,,0.00,Rainwise IP-100,2013-03-21 14:42:00,
2013-03-21 10:47:00,38.0,24.0,29.72,NE,45,1.9,9.3,57,0.00,,,0.00,Rainwise IP-100,2013-03-21 14:47:00,
2013-03-21 10:52:00,38.4,24.0,29.71,NNW,337,3.5,8.4,56,0.00,,,0.00,Rainwise IP-100,2013-03-21 14:52:00,
2013-03-21 10:57:00,38.7,24.0,29.71,NNW,337,4.4,9.3,56,0.00,,,0.00,Rainwise IP-100,2013-03-21 14:57:00,
2013-03-21 11:02:00,38.4,24.0,29.70,NNE,22,4.7,6.3,55,0.00,,,0.00,Rainwise IP-100,2013-03-21 15:02:00,
2013-03-21 11:07:00,38.0,24.0,29.71,North,360,4.0,8.4,55,0.00,,,0.00,Rainwise IP-100,2013-03-21 15:07:00,
2013-03-21 11:12:00,38.0,24.0,29.71,North,360,7.5,11.9,56,0.00,,,0.00,Rainwise IP-100,2013-03-21 15:12:00,
2013-03-21 11:17:00,38.2,24.0,29.70,North,360,6.8,11.4,56,0.00,,,0.00,Rainwise IP-100,2013-03-21 15:17:00,
2013-03-21 11:22:00,38.1,24.0,29.71,ESE,112,1.2,7.5,56,0.00,,,0.00,Rainwise IP-100,2013-03-21 15:22:00,
2013-03-21 11:27:00,37.7,24.0,29.70,NNE,22,4.4,8.6,56,0.00,,,0.00,Rainwise IP-100,2013-03-21 15:27:00,
2013-03-21 11:32:00,37.8,24.0,29.70,NE,45,4.0,9.6,56,0.00,,,0.00,Rainwise IP-100,2013-03-21 15:32:00,
2013-03-21 11:37:00,38.2,24.0,29.70,NE,45,4.4,8.4,56,0.00,,,0.00,Rainwise IP-100,2013-03-21 15:37:00,
2013-03-21 11:42:00,38.2,24.0,29.70,NNW,337,6.5,6.8,56,0.00,,,0.00,Rainwise IP-100,2013-03-21 15:42:00,
2013-03-21 11:47:00,38.4,24.0,29.69,North,360,6.5,6.8,56,0.00,,,0.00,Rainwise IP-100,2013-03-21 15:47:00,
2013-03-21 11:52:00,38.7,24.0,29.69,NNW,337,11.7,13.8,55,0.00,,,0.00,Rainwise IP-100,2013-03-21 15:52:00,
2013-03-21 11:57:00,38.9,24.0,29.69,NNW,337,3.5,13.5,55,0.00,,,0.00,Rainwise IP-100,2013-03-21 15:57:00,
2013-03-21 12:02:00,39.7,26.0,29.68,ENE,67,4.7,7.9,55,0.00,,,0.00,Rainwise IP-100,2013-03-21 16:02:00,
2013-03-21 12:07:00,40.0,26.0,29.68,NNW,337,6.1,7.2,54,0.00,,,0.00,Rainwise IP-100,2013-03-21 16:07:00,
2013-03-21 12:12:00,39.9,24.0,29.68,NNW,337,7.7,13.3,53,0.00,,,0.00,Rainwise IP-100,2013-03-21 16:12:00,
2013-03-21 12:17:00,40.0,24.0,29.68,NNW,337,11.7,11.7,53,0.00,,,0.00,Rainwise IP-100,2013-03-21 16:17:00,
2013-03-21 12:22:00,39.6,24.0,29.67,NNE,22,4.2,12.4,53,0.00,,,0.00,Rainwise IP-100,2013-03-21 16:22:00,
2013-03-21 12:28:00,39.6,24.0,29.67,NNW,337,9.3,9.8,53,0.00,,,0.00,Rainwise IP-100,2013-03-21 16:28:00,
2013-03-21 12:33:00,39.7,26.0,29.67,ENE,67,3.5,10.3,54,0.00,,,0.00,Rainwise IP-100,2013-03-21 16:33:00,
2013-03-21 12:38:00,40.3,26.0,29.66,NE,45,1.9,6.8,55,0.00,,,0.00,Rainwise IP-100,2013-03-21 16:38:00,
2013-03-21 12:43:00,40.8,26.0,29.66,North,360,5.1,11.0,55,0.00,,,0.00,Rainwise IP-100,2013-03-21 16:43:00,
2013-03-21 12:48:00,40.2,26.0,29.66,East,90,4.4,10.5,54,0.00,,,0.00,Rainwise IP-100,2013-03-21 16:48:00,
2013-03-21 12:53:00,39.8,26.0,29.66,NNW,337,7.0,11.7,54,0.00,,,0.00,Rainwise IP-100,2013-03-21 16:53:00,
2013-03-21 12:58:00,40.2,26.0,29.65,ESE,112,1.9,11.0,54,0.00,,,0.00,Rainwise IP-100,2013-03-21 16:58:00,
2013-03-21 13:03:00,40.5,26.0,29.65,NNE,22,4.2,8.6,54,0.00,,,0.00,Rainwise IP-100,2013-03-21 17:03:00,
2013-03-21 13:08:00,40.5,26.0,29.65,ENE,67,6.8,11.0,54,0.00,,,0.00,Rainwise IP-100,2013-03-21 17:08:00,
2013-03-21 13:13:00,40.4,26.0,29.65,NNE,22,4.7,14.0,54,0.00,,,0.00,Rainwise IP-100,2013-03-21 17:13:00,
2013-03-21 13:18:00,40.2,26.0,29.65,NNW,337,6.3,11.0,54,0.00,,,0.00,Rainwise IP-100,2013-03-21 17:18:00,
2013-03-21 13:23:00,39.9,26.0,29.65,NNE,22,1.2,13.1,55,0.00,,,0.00,Rainwise IP-100,2013-03-21 17:23:00,
2013-03-21 13:28:00,39.9,26.0,29.65,NE,45,4.4,10.3,55,0.00,,,0.00,Rainwise IP-100,2013-03-21 17:28:00,
2013-03-21 13:33:00,40.2,26.0,29.64,North,360,6.1,13.1,55,0.00,,,0.00,Rainwise IP-100,2013-03-21 17:33:00,
2013-03-21 13:38:00,39.9,26.0,29.64,NNE,22,3.5,10.5,55,0.00,,,0.00,Rainwise IP-100,2013-03-21 17:38:00,
2013-03-21 13:43:00,39.4,24.0,29.65,NNW,337,10.0,10.3,56,0.00,,,0.00,Rainwise IP-100,2013-03-21 17:43:00,
2013-03-21 13:48:00,39.1,24.0,29.64,ENE,67,5.4,10.7,56,0.00,,,0.00,Rainwise IP-100,2013-03-21 17:48:00,
2013-03-21 13:53:00,39.1,26.0,29.64,NNW,337,7.5,8.2,57,0.00,,,0.00,Rainwise IP-100,2013-03-21 17:53:00,
2013-03-21 13:58:00,39.0,26.0,29.64,NNW,337,8.2,8.9,58,0.00,,,0.00,Rainwise IP-100,2013-03-21 17:58:00,
2013-03-21 14:03:00,38.8,26.0,29.64,ENE,67,4.2,9.8,58,0.00,,,0.00,Rainwise IP-100,2013-03-21 18:03:00,
2013-03-21 14:08:00,38.7,26.0,29.62,NNW,337,4.7,9.6,58,0.00,,,0.00,Rainwise IP-100,2013-03-21 18:08:00,
2013-03-21 14:13:00,38.8,26.0,29.63,North,360,4.4,14.5,58,0.00,,,0.00,Rainwise IP-100,2013-03-21 18:13:00,
2013-03-21 14:18:00,39.0,26.0,29.62,NNW,337,2.8,10.0,59,0.00,,,0.00,Rainwise IP-100,2013-03-21 18:18:00,
2013-03-21 14:23:00,39.0,26.0,29.62,NNW,337,7.9,9.8,59,0.00,,,0.00,Rainwise IP-100,2013-03-21 18:23:00,
2013-03-21 14:28:00,38.6,26.0,29.62,East,90,3.3,10.0,60,0.00,,,0.00,Rainwise IP-100,2013-03-21 18:28:00,
2013-03-21 14:33:00,38.3,26.0,29.62,NNW,337,4.0,7.5,62,0.00,,,0.00,Rainwise IP-100,2013-03-21 18:33:00,
2013-03-21 14:38:00,38.2,26.0,29.61,NNW,337,5.1,11.9,62,0.00,,,0.00,Rainwise IP-100,2013-03-21 18:38:00,
2013-03-21 14:43:00,38.3,26.0,29.61,ESE,112,1.6,6.8,63,0.00,,,0.00,Rainwise IP-100,2013-03-21 18:43:00,
2013-03-21 14:48:00,38.7,28.0,29.61,East,90,3.0,8.4,64,0.00,,,0.00,Rainwise IP-100,2013-03-21 18:48:00,
2013-03-21 14:53:00,38.8,28.0,29.61,NNE,22,5.1,8.6,64,0.00,,,0.00,Rainwise IP-100,2013-03-21 18:53:00,
2013-03-21 14:58:00,38.5,29.0,29.61,ENE,67,5.8,10.3,65,0.00,,,0.00,Rainwise IP-100,2013-03-21 18:58:00,
2013-03-21 15:03:00,38.5,29.0,29.60,North,360,7.7,9.3,66,0.00,,,0.00,Rainwise IP-100,2013-03-21 19:03:00,
2013-03-21 15:08:00,38.5,29.0,29.60,NE,45,4.4,9.6,66,0.00,,,0.00,Rainwise IP-100,2013-03-21 19:08:00,
2013-03-21 15:13:00,38.2,29.0,29.59,NNW,337,9.8,10.3,68,0.00,,,0.00,Rainwise IP-100,2013-03-21 19:13:00,
2013-03-21 15:18:00,37.9,29.0,29.60,NNW,337,4.9,11.7,69,0.00,,,0.00,Rainwise IP-100,2013-03-21 19:18:00,
2013-03-21 15:23:00,37.6,29.0,29.59,NE,45,4.2,14.2,70,0.00,,,0.00,Rainwise IP-100,2013-03-21 19:23:00,
2013-03-21 15:28:00,37.4,29.0,29.59,NE,45,3.5,10.7,71,0.00,,,0.00,Rainwise IP-100,2013-03-21 19:28:00,
2013-03-21 15:33:00,37.3,29.0,29.59,NNE,22,5.6,10.3,72,0.00,,,0.00,Rainwise IP-100,2013-03-21 19:33:00,
2013-03-21 15:38:00,37.4,29.0,29.58,NNW,337,5.1,10.0,72,0.00,,,0.00,Rainwise IP-100,2013-03-21 19:38:00,
2013-03-21 15:43:00,37.6,31.0,29.59,ENE,67,5.8,8.4,73,0.00,,,0.00,Rainwise IP-100,2013-03-21 19:43:00,
2013-03-21 15:48:00,37.2,29.0,29.59,NE,45,3.0,9.8,73,0.00,,,0.00,Rainwise IP-100,2013-03-21 19:48:00,
2013-03-21 15:53:00,36.5,29.0,29.58,NE,45,4.2,7.5,74,0.00,,,0.00,Rainwise IP-100,2013-03-21 19:53:00,
2013-03-21 15:58:00,36.2,29.0,29.58,NNE,22,3.3,10.3,74,0.00,,,0.00,Rainwise IP-100,2013-03-21 19:58:00,
2013-03-21 16:03:00,36.1,29.0,29.58,NNW,337,3.0,7.0,75,0.00,,,0.00,Rainwise IP-100,2013-03-21 20:03:00,
2013-03-21 16:08:00,36.1,29.0,29.58,North,360,3.7,8.4,76,0.00,,,0.00,Rainwise IP-100,2013-03-21 20:08:00,
2013-03-21 16:13:00,35.7,29.0,29.58,ENE,67,3.3,8.4,76,0.00,,,0.00,Rainwise IP-100,2013-03-21 20:13:00,
2013-03-21 16:18:00,35.4,28.0,29.58,NE,45,3.7,8.2,76,0.00,,,0.00,Rainwise IP-100,2013-03-21 20:18:00,
2013-03-21 16:23:00,35.4,28.0,29.58,NE,45,4.0,8.9,76,0.00,,,0.00,Rainwise IP-100,2013-03-21 20:23:00,
2013-03-21 16:28:00,35.2,28.0,29.58,North,360,6.1,7.2,76,0.00,,,0.00,Rainwise IP-100,2013-03-21 20:28:00,
2013-03-21 16:33:00,34.9,28.0,29.57,North,360,3.3,8.9,77,0.00,,,0.00,Rainwise IP-100,2013-03-21 20:33:00,
2013-03-21 16:38:00,34.8,28.0,29.58,NE,45,6.1,7.5,77,0.00,,,0.00,Rainwise IP-100,2013-03-21 20:38:00,
2013-03-21 16:43:00,34.6,28.0,29.58,NE,45,4.9,8.9,77,0.00,,,0.00,Rainwise IP-100,2013-03-21 20:43:00,
2013-03-21 16:48:00,34.4,28.0,29.58,NE,45,2.8,7.2,77,0.00,,,0.00,Rainwise IP-100,2013-03-21 20:48:00,
2013-03-21 16:53:00,34.2,28.0,29.58,ENE,67,3.5,5.8,77,0.00,,,0.00,Rainwise IP-100,2013-03-21 20:53:00,
2013-03-21 16:58:00,34.1,28.0,29.58,NE,45,3.5,7.2,77,0.00,,,0.00,Rainwise IP-100,2013-03-21 20:58:00,
2013-03-21 17:03:00,33.9,29.0,29.58,NNE,22,3.3,7.7,78,0.00,,,0.00,Rainwise IP-100,2013-03-21 21:03:00,
2013-03-21 17:08:00,33.8,29.0,29.58,NNW,337,8.9,8.9,78,0.00,,,0.00,Rainwise IP-100,2013-03-21 21:08:00,
2013-03-21 17:13:00,33.6,29.0,29.58,ENE,67,3.0,10.0,79,0.00,,,0.00,Rainwise IP-100,2013-03-21 21:13:00,
2013-03-21 17:18:00,33.2,28.0,29.58,NW,315,3.0,7.9,81,0.00,,,0.00,Rainwise IP-100,2013-03-21 21:18:00,
2013-03-21 17:23:00,32.7,29.0,29.59,North,360,3.3,7.9,83,0.00,,,0.00,Rainwise IP-100,2013-03-21 21:23:00,
2013-03-21 17:28:00,32.4,28.0,29.58,NNW,337,0.0,6.5,85,0.00,,,0.00,Rainwise IP-100,2013-03-21 21:28:00,
2013-03-21 17:33:00,32.1,28.0,29.59,NNW,337,3.7,10.5,86,0.00,,,0.00,Rainwise IP-100,2013-03-21 21:33:00,
2013-03-21 17:38:00,32.0,29.0,29.59,NNW,337,3.5,6.5,88,0.00,,,0.00,Rainwise IP-100,2013-03-21 21:38:00,
2013-03-21 17:43:00,31.9,29.0,29.59,North,360,2.6,5.8,89,0.00,,,0.00,Rainwise IP-100,2013-03-21 21:43:00,
2013-03-21 17:48:00,31.9,29.0,29.59,NE,45,0.0,4.2,90,0.00,,,0.00,Rainwise IP-100,2013-03-21 21:48:00,
2013-03-21 17:53:00,31.7,29.0,29.59,NNW,337,4.0,7.7,90,0.00,,,0.00,Rainwise IP-100,2013-03-21 21:53:00,
2013-03-21 17:58:00,31.6,29.0,29.59,NNW,337,3.3,5.6,91,0.00,,,0.00,Rainwise IP-100,2013-03-21 21:58:00,
2013-03-21 18:03:00,31.5,31.0,29.59,North,360,4.2,5.4,92,0.00,,,0.00,Rainwise IP-100,2013-03-21 22:03:00,
2013-03-21 18:08:00,31.4,29.0,29.59,NNW,337,6.3,7.9,92,0.00,,,0.00,Rainwise IP-100,2013-03-21 22:08:00,
2013-03-21 18:13:00,31.2,29.0,29.59,North,360,3.0,9.3,93,0.00,,,0.00,Rainwise IP-100,2013-03-21 22:13:00,
2013-03-21 18:18:00,31.1,29.0,29.59,NNW,337,0.0,6.8,93,0.00,,,0.00,Rainwise IP-100,2013-03-21 22:18:00,
2013-03-21 18:23:00,31.1,29.0,29.60,NNE,22,4.2,4.7,94,0.00,,,0.00,Rainwise IP-100,2013-03-21 22:23:00,
2013-03-21 18:28:00,31.0,29.0,29.60,North,360,1.6,5.1,94,0.00,,,0.00,Rainwise IP-100,2013-03-21 22:28:00,
2013-03-21 18:33:00,30.8,29.0,29.60,NNE,22,2.3,5.1,94,0.00,,,0.00,Rainwise IP-100,2013-03-21 22:33:00,
2013-03-21 18:38:00,30.6,29.0,29.59,NNW,337,5.4,6.1,94,0.00,,,0.00,Rainwise IP-100,2013-03-21 22:38:00,
2013-03-21 18:43:00,30.5,29.0,29.60,North,360,3.0,8.4,95,0.00,,,0.00,Rainwise IP-100,2013-03-21 22:43:00,
2013-03-21 18:48:00,30.2,29.0,29.60,North,360,2.8,5.8,95,0.00,,,0.00,Rainwise IP-100,2013-03-21 22:48:00,
2013-03-21 18:53:00,30.1,29.0,29.60,NNE,22,1.2,5.4,95,0.00,,,0.00,Rainwise IP-100,2013-03-21 22:53:00,
2013-03-21 18:58:00,30.0,29.0,29.60,North,360,5.8,5.8,95,0.00,,,0.00,Rainwise IP-100,2013-03-21 22:58:00,
2013-03-21 19:03:00,29.9,29.0,29.60,North,360,3.5,11.0,95,0.00,,,0.00,Rainwise IP-100,2013-03-21 23:03:00,
2013-03-21 19:08:00,29.8,29.0,29.60,NNE,22,1.6,10.5,96,0.00,,,0.00,Rainwise IP-100,2013-03-21 23:08:00,
2013-03-21 19:13:00,29.8,29.0,29.60,NNE,22,4.0,6.8,96,0.00,,,0.00,Rainwise IP-100,2013-03-21 23:13:00,
2013-03-21 19:18:00,29.7,29.0,29.60,NE,45,0.0,6.8,96,0.00,,,0.00,Rainwise IP-100,2013-03-21 23:18:00,
2013-03-21 19:23:00,29.7,29.0,29.60,NNE,22,1.9,4.7,96,0.00,,,0.00,Rainwise IP-100,2013-03-21 23:23:00,
2013-03-21 19:28:00,29.7,29.0,29.60,North,360,2.3,8.6,96,0.00,,,0.00,Rainwise IP-100,2013-03-21 23:28:00,
2013-03-21 19:33:00,29.7,29.0,29.61,North,360,0.0,5.4,96,0.00,,,0.00,Rainwise IP-100,2013-03-21 23:33:00,
2013-03-21 19:38:00,29.7,29.0,29.61,North,360,1.4,4.4,97,0.00,,,0.00,Rainwise IP-100,2013-03-21 23:38:00,
2013-03-21 19:43:00,29.7,29.0,29.61,NNE,22,0.0,5.1,97,0.00,,,0.00,Rainwise IP-100,2013-03-21 23:43:00,
2013-03-21 19:48:00,29.7,29.0,29.61,NNE,22,0.0,3.7,97,0.00,,,0.00,Rainwise IP-100,2013-03-21 23:48:00,
2013-03-21 19:53:00,29.8,29.0,29.61,NNE,22,1.2,2.6,97,0.00,,,0.00,Rainwise IP-100,2013-03-21 23:53:00,
2013-03-21 19:58:00,29.8,29.0,29.61,North,360,0.0,4.2,97,0.00,,,0.00,Rainwise IP-100,2013-03-21 23:58:00,
2013-03-21 20:03:00,29.9,29.0,29.61,North,360,2.8,5.6,97,0.00,,,0.00,Rainwise IP-100,2013-03-22 00:03:00,
2013-03-21 20:08:00,29.9,29.0,29.61,ENE,67,1.2,4.9,97,0.00,,,0.00,Rainwise IP-100,2013-03-22 00:08:00,
2013-03-21 20:13:00,29.9,29.0,29.61,NNE,22,2.1,3.7,97,0.00,,,0.00,Rainwise IP-100,2013-03-22 00:13:00,
2013-03-21 20:18:00,29.9,29.0,29.61,NNE,22,2.6,3.7,97,0.00,,,0.00,Rainwise IP-100,2013-03-22 00:18:00,
2013-03-21 20:23:00,29.9,29.0,29.61,NNE,22,1.6,3.0,97,0.00,,,0.00,Rainwise IP-100,2013-03-22 00:23:00,
2013-03-21 20:28:00,29.9,29.0,29.60,NNW,337,0.0,6.5,97,0.00,,,0.00,Rainwise IP-100,2013-03-22 00:28:00,
2013-03-21 20:33:00,29.9,29.0,29.60,NNW,337,4.4,8.4,97,0.00,,,0.00,Rainwise IP-100,2013-03-22 00:33:00,
2013-03-21 20:38:00,29.9,29.0,29.60,NE,45,3.0,7.7,97,0.00,,,0.00,Rainwise IP-100,2013-03-22 00:38:00,
2013-03-21 20:43:00,29.9,31.0,29.60,North,360,2.8,6.3,98,0.00,,,0.00,Rainwise IP-100,2013-03-22 00:43:00,
2013-03-21 20:48:00,29.8,31.0,29.60,NNE,22,1.6,5.8,98,0.00,,,0.00,Rainwise IP-100,2013-03-22 00:48:00,
2013-03-21 20:53:00,29.8,31.0,29.60,NNE,22,3.0,5.6,98,0.00,,,0.00,Rainwise IP-100,2013-03-22 00:53:00,
2013-03-21 20:58:00,29.8,31.0,29.61,North,360,2.3,5.6,98,0.00,,,0.00,Rainwise IP-100,2013-03-22 00:58:00,
2013-03-21 21:03:00,29.7,31.0,29.60,NNW,337,2.8,8.2,98,0.00,,,0.00,Rainwise IP-100,2013-03-22 01:03:00,
2013-03-21 21:08:00,29.7,31.0,29.60,North,360,3.0,5.4,98,0.00,,,0.00,Rainwise IP-100,2013-03-22 01:08:00,
2013-03-21 21:13:00,29.7,31.0,29.60,NNE,22,1.6,5.1,98,0.00,,,0.00,Rainwise IP-100,2013-03-22 01:13:00,
2013-03-21 21:18:00,29.7,31.0,29.61,North,360,2.3,6.3,98,0.00,,,0.00,Rainwise IP-100,2013-03-22 01:18:00,
2013-03-21 21:23:00,29.7,31.0,29.60,NW,315,3.0,5.4,98,0.00,,,0.00,Rainwise IP-100,2013-03-22 01:23:00,
2013-03-21 21:28:00,29.7,31.0,29.60,North,360,2.3,9.3,98,0.00,,,0.00,Rainwise IP-100,2013-03-22 01:28:00,
2013-03-21 21:33:00,29.7,31.0,29.60,NNW,337,6.5,9.1,98,0.00,,,0.00,Rainwise IP-100,2013-03-22 01:33:00,
2013-03-21 21:38:00,29.7,31.0,29.60,NNE,22,2.8,7.5,98,0.00,,,0.00,Rainwise IP-100,2013-03-22 01:38:00,
2013-03-21 21:43:00,29.7,31.0,29.60,NNW,337,3.3,6.5,98,0.00,,,0.00,Rainwise IP-100,2013-03-22 01:43:00,
2013-03-21 21:49:00,29.6,31.0,29.60,North,360,5.6,6.8,98,0.00,,,0.00,Rainwise IP-100,2013-03-22 01:49:00,
2013-03-21 21:54:00,29.6,31.0,29.60,NNW,337,1.9,6.8,98,0.00,,,0.00,Rainwise IP-100,2013-03-22 01:54:00,
2013-03-21 21:59:00,29.6,31.0,29.60,NNW,337,2.1,6.1,98,0.00,,,0.00,Rainwise IP-100,2013-03-22 01:59:00,
2013-03-21 22:04:00,29.6,31.0,29.60,NNW,337,3.5,5.4,98,0.00,,,0.00,Rainwise IP-100,2013-03-22 02:04:00,
2013-03-21 22:09:00,29.6,31.0,29.60,NNW,337,2.1,8.2,98,0.00,,,0.00,Rainwise IP-100,2013-03-22 02:09:00,
2013-03-21 22:14:00,29.6,31.0,29.60,NNW,337,3.3,7.0,98,0.00,,,0.00,Rainwise IP-100,2013-03-22 02:14:00,
2013-03-21 22:19:00,29.6,31.0,29.60,North,360,4.7,7.7,98,0.00,,,0.00,Rainwise IP-100,2013-03-22 02:19:00,
2013-03-21 22:24:00,29.6,31.0,29.60,NNW,337,3.7,7.9,98,0.00,,,0.00,Rainwise IP-100,2013-03-22 02:24:00,
2013-03-21 22:29:00,29.6,31.0,29.60,North,360,10.0,10.0,98,0.00,,,0.00,Rainwise IP-100,2013-03-22 02:29:00,
2013-03-21 22:34:00,29.6,31.0,29.59,NNW,337,3.7,12.1,98,0.00,,,0.00,Rainwise IP-100,2013-03-22 02:34:00,
2013-03-21 22:39:00,29.6,31.0,29.60,NNW,337,3.0,7.2,98,0.00,,,0.00,Rainwise IP-100,2013-03-22 02:39:00,
2013-03-21 22:44:00,29.7,31.0,29.60,NNW,337,4.2,8.6,98,0.00,,,0.00,Rainwise IP-100,2013-03-22 02:44:00,
2013-03-21 22:49:00,29.8,31.0,29.59,North,360,6.1,8.6,99,0.00,,,0.00,Rainwise IP-100,2013-03-22 02:49:00,
2013-03-21 22:54:00,29.8,31.0,29.60,North,360,3.0,9.3,99,0.00,,,0.00,Rainwise IP-100,2013-03-22 02:54:00,
2013-03-21 22:59:00,29.8,31.0,29.60,NW,315,1.9,5.6,99,0.00,,,0.00,Rainwise IP-100,2013-03-22 02:59:00,
2013-03-21 23:04:00,29.9,31.0,29.60,NNW,337,2.8,7.0,99,0.00,,,0.00,Rainwise IP-100,2013-03-22 03:04:00,
2013-03-21 23:09:00,29.9,31.0,29.60,WNW,292,3.0,7.0,99,0.00,,,0.00,Rainwise IP-100,2013-03-22 03:09:00,
2013-03-21 23:14:00,29.9,31.0,29.60,NNW,337,4.7,6.5,99,0.00,,,0.00,Rainwise IP-100,2013-03-22 03:14:00,
2013-03-21 23:19:00,29.9,31.0,29.60,NNW,337,2.8,5.6,99,0.00,,,0.00,Rainwise IP-100,2013-03-22 03:19:00,
2013-03-21 23:24:00,29.9,31.0,29.60,NNW,337,2.8,5.6,99,0.00,,,0.00,Rainwise IP-100,2013-03-22 03:24:00,
2013-03-21 23:29:00,29.9,31.0,29.60,North,360,3.5,4.4,99,0.00,,,0.00,Rainwise IP-100,2013-03-22 03:29:00,
2013-03-21 23:34:00,30.0,31.0,29.60,NNW,337,2.1,6.8,99,0.00,,,0.00,Rainwise IP-100,2013-03-22 03:34:00,
2013-03-21 23:39:00,30.0,31.0,29.60,NNW,337,2.6,4.2,99,0.00,,,0.00,Rainwise IP-100,2013-03-22 03:39:00,
2013-03-21 23:44:00,30.0,31.0,29.60,NNW,337,2.3,3.7,99,0.00,,,0.00,Rainwise IP-100,2013-03-22 03:44:00,
2013-03-21 23:49:00,30.1,31.0,29.60,NNW,337,3.5,5.1,99,0.00,,,0.00,Rainwise IP-100,2013-03-22 03:49:00,
2013-03-21 23:54:00,30.1,31.0,29.60,NNW,337,0.0,4.4,99,0.00,,,0.00,Rainwise IP-100,2013-03-22 03:54:00,
2013-03-21 23:59:00,30.1,31.0,29.60,NNW,337,4.4,4.7,99,0.00,,,0.00,Rainwise IP-100,2013-03-22 03:59:00,